User: anonymous   Login
Location: Newark
(44.3681°N, 100.3364°W)
Time: 08:57:20
(UTC+00:00)
Language:

SR - Orbit

View from above orbital plane
View from above orbital plane
View from above satellite
View from above satellite

Ground track
Ground track

The orbit data is extracted from the following two-line orbital elements,

1    46U 60007B   20222.80821860 -.00000070  00000-0  91815-5 0  9991
2    46  66.6893 262.3599 0202301  91.5429 270.8862 14.49307438146832
Epoch (UTC): 09 August 2020 19:23:50
Eccentricity: 0.0202301
inclination: 66.6893°
perigee height: 584 km
apogee height: 871 km
right ascension of ascending node: 262.3599°
argument of perigee: 91.5429°
revolutions per day: 14.49307438
mean anomaly at epoch: 270.8862°
orbit number at epoch: 14683

The dashed part of the orbit path shows where the satellite is in the earth's shadow,  

DLR